Vorticity
1 12 10 6 9 7 6 5 9 4 6 7 10 8 9 6 7 8 9 7 6 7
19 15 -2 -1 6 7 2 7 -2 -2 11 7 10 6 10 7 6 8 8 6 7 9
20 7 6 -4 7 6 2 -5 17 14 9 7 12 9 8 7 7 8 8 8 9 11
20 13 9 10 1 8 10 3 8 7 6 15 11 9 7 7 8 8 8 8 10 9
2 16 13 17 13 6 8 19 21 12 11 14 10 8 5 7 2 10 7 9 11 10
5 16 24 21 19 19 13 12 13 12 11 11 9 7 7 7 11 8 9 12 10 11
17 10 8 8 6 10 9 14 8 9 12 10 8 7 8 6 8 8 11 11 12 8
5 2 3 5 5 8 9 10 11 11 10 9 7 6 8 7 7 8 13 13 9 6
10 8 7 7 6 5 10 9 6 13 11 8 7 7 6 7 7 11 13 12 6 5
5 3 3 6 4 8 10 7 13 9 11 6 6 7 6 7 7 12 12 8 7 6
6 5 8 10 8 9 14 8 9 10 10 9 8 6 6 7 10 11 11 9 5 6
13 6 8 12 12 7 12 6 9 4 11 8 6 7 7 7 12 8 12 6 5 4
9 12 11 12 9 9 10 8 8 14 10 8 7 7 8 12 9 14 8 5 4 4
4 5 5 5 9 3 5 11 16 11 10 8 8 8 8 11 10 12 6 4 4 4
Height
5801 5804 5806 5805 5806 5806 5807 5807 5807 5806 5805 5803 5802 5800 5799 5797 5795 5793 5791 5790 5787 5785
5791 5795 5796 5796 5797 5799 5799 5799 5799 5798 5797 5796 5795 5793 5791 5790 5788 5786 5784 5782 5780 5777
5781 5784 5786 5787 5789 5790 5790 5790 5790 5789 5788 5787 5787 5785 5784 5782 5781 5779 5777 5775 5772 5769
5771 5772 5774 5777 5779 5780 5780 5780 5781 5780 5780 5780 5779 5778 5777 5776 5774 5772 5769 5767 5764 5761
5761 5762 5764 5766 5768 5769 5769 5769 5770 5770 5770 5771 5770 5770 5770 5769 5766 5764 5762 5759 5757 5754
5750 5752 5753 5755 5756 5758 5759 5760 5761 5761 5762 5762 5762 5762 5762 5761 5759 5757 5755 5752 5750 5747
5741 5744 5744 5746 5748 5750 5751 5751 5752 5753 5754 5754 5754 5754 5754 5753 5751 5749 5747 5745 5742 5740
5730 5733 5735 5737 5739 5740 5741 5742 5742 5744 5745 5745 5746 5746 5745 5744 5743 5741 5740 5738 5736 5733
5718 5722 5725 5727 5729 5730 5731 5732 5733 5735 5736 5737 5737 5738 5737 5736 5734 5733 5732 5731 5729 5726
5708 5712 5714 5716 5719 5721 5722 5723 5724 5725 5727 5728 5729 5729 5728 5728 5726 5726 5724 5723 5721 5718
5698 5702 5705 5707 5709 5711 5713 5714 5715 5717 5718 5719 5720 5720 5720 5719 5718 5718 5716 5715 5713 5710
5689 5693 5696 5698 5699 5702 5703 5704 5706 5707 5709 5710 5710 5711 5711 5710 5710 5708 5708 5706 5704 5702
5678 5682 5685 5687 5690 5692 5694 5695 5698 5699 5700 5700 5701 5702 5702 5701 5701 5701 5700 5698 5697 5694
5668 5671 5674 5677 5680 5682 5685 5687 5689 5690 5691 5692 5693 5693 5693 5693 5692 5692 5692 5690 5689 5687